Regional Weather Roundup
Issued by NWS

Home | Current Version | Previous Version | Text Only | Print | Product List | Glossary Off
Versions: 1 2 3 4 5 6 7 8 9 10 11 12 13 14 15 16 17 18 19 20 21 22 23 24 25 26 27 28 29 30 31 32 33 34 35 36 37 38 39 40 41 42 43 44 45 46 47 48 49 50

000
ASUS43 KMKX 040700
RWRWI

WISCONSIN REGIONAL WEATHER ROUNDUP
NATIONAL WEATHER SERVICE MILWAUKEE/SULLIVAN WI
200 AM CDT WED MAY 04 2016

NOTE: "FAIR" INDICATES FEW OR NO CLOUDS BELOW 12,000 FEET WITH NO
SIGNIFICANT WEATHER AND/OR OBSTRUCTIONS TO VISIBILITY.

WIZ001-002-006>008-014>016-023>028-040800-
NORTHWEST WISCONSIN

CITY           SKY/WX    TMP DP  RH WIND       PRES   REMARKS
SUPERIOR ARPT  CLEAR     48  32  53 NE8       29.90R
ASHLAND        MOCLDY    36  34  92 W6        29.87S WCI  31
HAYWARD        PTCLDY    41  31  67 CALM      29.87R
SIREN          CLEAR     48  31  51 NE8       29.88R
CUMBERLAND     CLEAR     45  30  57 NE12      29.86R
RICE LAKE      CLEAR     47  32  55 N17G25    29.87R
CHETEK         CLEAR     48  34  59 N12G21    29.85R
LADYSMITH      CLEAR     45  36  70 N13       29.85R
EAU CLAIRE     NOT AVBL
MENOMONIE      PTCLDY    50  34  53 N10G16    29.83R
NEW RICHMOND   CLEAR     50  30  45 N22G30    29.87R
OSCEOLA        CLEAR     51  33  49 N15G21    29.90R
$$

WIZ003>005-009-010-017-018-040800-
NORTH CENTRAL WISCONSIN

CITY           SKY/WX    TMP DP  RH WIND       PRES   REMARKS
MANITOWISH WTR CLOUDY    40  37  89 CALM      29.81S
ARBOR VITAE    CLOUDY    42  37  83 N7        29.80S
WOODRUFF       CLOUDY    42  37  83 N7        29.80S
RHINELANDER    CLOUDY    41  34  76 N8        29.79R
EAGLE RIVER    CLOUDY    40  33  76 N8        29.78S WCI  34
LAND O LAKES   LGT RAIN  40  35  82 N6        29.79S
PHILLIPS       PTCLDY    40  36  87 N9        29.82R WCI  33
TOMAHAWK       MOCLDY    39  37  93 N6        29.80R
MEDFORD        PTCLDY    41  38  89 N9        29.78R
MERRILL        DRIZZLE   41  41 100 NE15G22   29.79R
$$

WIZ029-030-035-036-043>047-040800-
CENTRAL WISCONSIN

CITY           SKY/WX    TMP DP  RH WIND       PRES   REMARKS
WAUSAU         PTCLDY    44  40  85 N13G20    29.75R
MOSINEE        CLEAR     43  43 100 N13G22    29.76R
MARSHFIELD     PTCLDY    46  41  82 N12       29.75R
STEVENS POINT  CLEAR     40  40  98 N5        29.74R
WAUPACA        CLEAR     46  44  93 N10       29.73R
WAUTOMA        CLEAR     45  42  89 N8        29.72R
WISC RAPIDS    PTCLDY    43  40  89 N7        29.75R
CAMP DOUGLAS   FOG       41  41 100 NW2       29.73R VSB 1/2
$$

WIZ011>013-019>022-031-037>040-048>050-040800-
NORTHEAST WISCONSIN

CITY           SKY/WX    TMP DP  RH WIND       PRES   REMARKS
ANTIGO         PTCLDY    40  38  91 N12G18    29.75R WCI  33
SHAWANO        PTCLDY    46  42  85 N6        29.73R
OCONTO         PTCLDY    45  45 100 N8        29.71S
STURGEON BAY   CLEAR     43  36  75 N14       29.72S
GREEN BAY      LGT RAIN  47  43  86 N13       29.71R
MANITOWOC      NOT AVBL
APPLETON       PTCLDY    45  43  93 N9        29.69R
CLINTONVILLE   CLEAR     45  41  87 N7        29.72R
OSHKOSH        CLEAR     46  42  86 N12       29.69R
$$

WIZ032>034-041-042-053>061-040800-
SOUTHWEST WISCONSIN

CITY           SKY/WX    TMP DP  RH WIND       PRES   REMARKS
LA CROSSE      PTCLDY    48  45  89 NW8       29.76R
SPARTA         PTCLDY    44  44 100 N3        29.76R FOG
VIROQUA        PTCLDY    44  44 100 N5        29.73R
BOSCOBEL       FOG       46  45  96 CALM      29.73R VSB 1/4
PRAIRIE DU CHI FOG       46  45  95 CALM      29.73R VSB 1/4
PLATTEVILLE    CLEAR     47  46  98 NW5       29.70S
$$

WIZ056-057-062-063-064-067-068-040800-
SOUTH CENTRAL WISCONSIN

CITY           SKY/WX    TMP DP  RH WIND       PRES   REMARKS
REEDSBURG      CLEAR     44  44 100 W3        29.71R
BARABOO/DELLS  CLEAR     45  44  95 N3        29.71R
LONE ROCK      NOT AVBL
MINERAL POINT  CLEAR     45  45 100 NW6       29.70S FOG
MADISON        PTCLDY    45  43  93 NW6       29.68S
MIDDLETON      PTCLDY    46  46  99 NW5       29.69R
WATERTOWN      MOCLDY    47  47 100 NW7       29.66R
MONROE         MOCLDY    45  45 100 NW7       29.68R
JANESVILLE     CLOUDY    46  46 100 NW5       29.66R
$$

WIZ051-052-058>065-066-070>072-040800-
SOUTHEAST WISCONSIN

CITY           SKY/WX    TMP DP  RH WIND       PRES   REMARKS
MILWAUKEE      CLOUDY    49  46  90 NE7       29.64S
WAUKESHA       CLOUDY    45  45 100 CALM      29.66R
MILWAUKEE/TIMM CLOUDY    48  45  87 N5        29.65R
RACINE         LGT RAIN  48  45  89 N7        29.65S
BURLINGTON     LGT RAIN  47  47  98 SE6       29.63F
KENOSHA        RAIN      50  47  89 CALM      29.64S FOG
FOND DU LAC    PTCLDY    46  45  96 N7        29.68R
SHEBOYGAN      CLOUDY    48  46  93 N8        29.66S
WEST BEND      CLOUDY    46  45  93 N6        29.66R
JUNEAU         PTCLDY    45  44  96 N3        29.68R
$$

LSZ147-162-040800-
LAKE SUPERIOR

STATION/POSITION TIME  TEMP    WIND        PRES    WAVE
                       AIR SEA DIR/SP/G            HT/PER
                 (UTC) (F)     (DEG/KT/KT) (MB)    (FT/S)
W MID LAKE BUOY  0550   40 37  280/  6/  8 1010.6R   2/ 4
DEVILS ISLAND    0600   46     330/  7/  8 1011.5R
SAXON HARBOR     0600   40     210/  1/  2 1010.5R
$$

LMZ867-665-643>646-040800-
LAKE MICHIGAN

STATION/POSITION TIME  TEMP    WIND        PRES    WAVE
                       AIR SEA DIR/SP/G            HT/PER
                 (UTC) (F)     (DEG/KT/KT) (MB)    (FT/S)
CHAMBERS ISLAND  0600   43     340/  9/ 12 1006.4R
N MID LAKE BUOY  0550   41 39  300/ 17/ 19 1004.4F   2/ 5
NORTHPORT PIER   0600   42     330/ 14/ 19 1005.8S
ALGOMA LAKESHORE 0600           10/ 11/ 14   N/A
KEWAUNEE LAKESHO 0600   48      10/  9/ 13 1004.6R
SHEBOYGAN LAKESH 0600   45     360/ 11/ 13 1004.8R
PORT WASHINGTON  0600   48      40/  6/  8 1005.1R
S MID LAKE BUOY  0550   46 41  210/ 12/ 14 1002.4F   1/ 3
KENOSHA   LAKESH 0600   52     350/ 15/ 23 1003.7R
$$

TC  - TEMPERATURE IN CELSIUS
VSB - VISIBILITY IN STATUTE MILES
WCI - WIND CHILL INDEX
HX  - HEAT INDEX





USA.gov is the U.S. government's official web portal to all federal, state and local government web resources and services.